Location: Bazugues
(43.4465°N, 0.3432°E)
Time: 15:37:46
(UTC+00:00)

SL-08 R/B - Pass Details

Date: 12 January 2026
Orbit: 950 x 1017 km, 82.9° (Epoch: 17 February)

Event Time Altitude Azimuth Distance (km) Brightness Sun altitude
Rises 19:06:01 0° 352° (N) 3,744 7.6 -25.1°
Reaches altitude 10° 19:08:33 10° 353° (N) 2,796 6.9 -25.6°
Maximum altitude 19:15:01 84° 82° (E) 1,027 4.4 -26.7°
Drops below altitude 10° 19:21:29 10° 171° (S) 2,793 6.8 -27.9°
Sets 19:24:00 0° 172° (S) 3,739 7.5 -28.4°
